ONEWEB-0203, 48235

Orbit data source: Space-Track

ONEWEB-0203, 48235 is a payload satellite owned by One Web (NAA) (UK) in LEO that was launched on Sun, 25 Apr 2021 UTC via a SOYUZ-2-1B launch vehicle from the Vostochny Cosmodrome (VOSTO). Payload-class satellites include a variety of spacecraft equipped with specific instruments for various scientific and technological missions. These include communications satellites like Starlink; space stations such as the ISS; scientific satellites like the Hubble; Earth observation satellites from companies like Planet Labs, Umbra, and HawkEye 360; GPS; miniature CubeSats for education and research; and military/defense satellites.

Loading next visibility...
Identifier
48235, 2021-031AB
Orbit
LEO
Country
Flag of UKUK
Related business
Manufacturer
One Web
Mission
Operational Commercial Communications
Bus & Motor
ARROW, Unknown motor
Mass
148 kg wet, ~140 kg dry
Launch date (UTC)
2021-04-25 (5 years ago)
Launch vehicle
SOYUZ-2-1B
Launch site
Vostochny Cosmodrome (VOSTO)
Object type
Payload
Rocket body
Debris
Shape & HBR
Trap Box + 2 Pan, 6.7 m
Radar Cross Section
3.464 m², Large (>1 m²)

Expand to show TLE details & history
Last TLE update: 2 days ago

TLE from 2 days ago
0 ONEWEB-0203
1 48235U 21031AB  26171.37277038  .00000050  00000-0  10162-3 0  9991
2 48235  87.8973 289.0652 0001801 103.8600 256.2730 13.14502731248697
Epoch: 2026-06-20T08:56Z
TLE epoch observation values (Epoch: 2026-06-20T08:56:47.360Z)
Latitude
-0.00006°
Longitude
-113.72047°
Altitude
1,209.009 km
Speed
7.249 km/s
True Right ascension
19h 16m 15s
True Declination
0° 00' 00"
Sunlit
Object was in full shadow at epoch
Visualization orbit readout
Latitude
Unknown
Longitude
Unknown
Altitude
Unknown
Speed
Unknown
Apparent Right ascension
Unknown
Apparent Declination
Unknown
Sunlit
N/A
Visualization observer readout
Local Sidereal Time
21:40:29
Azimuth
Unknown
Elevation
Unknown
Doppler factor
Unknown
Orbital elements
Apogee altitude
1,204.27 km
Perigee altitude
1,201.539 km
Semi-major axis
7,581.041 km
Eccentricity
0.00018
Inclination
87.8973°
RAAN
289.0652°
Arg. of periapsis
103.86°
True anomaly
256.25295°
Mean anomaly
256.273°
Eccentric anomaly
256.26298°
Mean motion
3.28814 °/min
Orbital period
109.48 mins
BSTAR
0.00010162
Loading maneuver chart data...
Computing Atmospheric mass density...
Loading historical data...
Loading historical data...
Loading historical data...
Loading historical data...
Loading historical data...
Loading historical data...
Loading historical data...

Documentation

Showing up to 5 results
|